星链-2567 (STARLINK-2567 )

导读

STARLINK-2567是美国SpaceX公司星链项目下的V1.5代低轨通信卫星,于2021年4月29日发射入轨。作为星链全球卫星互联网星座的组成部分,该卫星配备激光星间链路,可实现卫星间直接通信,降低对地面基站的依赖,助力提升网络带宽与覆盖范围,服务全球偏远地区高速互联网接入,同时也推动了星链低轨星座的组网进程,是星链星座中规模占比最高的卫星类型之一。

基本信息
目录编号:
48276
目录名称:
STARLINK-2567
国际标识:
2021-036A
轨道中心:
EARTH
卫星名称:
星链-2567
卫星全名:
星链-2567 (STARLINK-2567 )
卫星状态:
在轨 (已飞行1954 天)
发射日期:
2021-04-29 UTC
国别 :
美国 (US)
星等 :
--
轨道信息
数据来源 国际轨道数据
星历时间: 2026-09-03T21:12:45+0800
17小时前
查看轨道信息
半长轴: 6848.89km
偏心率: 0.0001486
轨道倾角: 53.161°
近地点辐角 59.440°
升交点赤经 303.228°
平近点角 300.675°
近地点: 469.735km
远地点: 471.771km
周期: 94.013分钟
每日圈数: 15.316959
详细信息
固有亮度:
5
最大亮度:
2.5
卫星平台:
Starlink V1.0
覆盖范围:
全球
运营商:
太空探索技术公司
运营商所在国:
美国
制造商(研发单位):
太空探索技术公司
制造商所在国:
美国
使用方式:
暂无
卫星简介
星链(Starlink)计划是由太空探索技术公司(SpaceX)提出的一个巨型低轨卫星互联网星座项目,计划在2019年至2024年间在太空搭建由约1.2万颗卫星组成的“星链”网络,其中1584颗将部署在地球上空550千米处的近地轨道,并从2020年开始工作。该卫星仍在工作。
2D轨道图
3D轨道图
轨道高度分析图
轨道倾角分析图
轨道综合分析图
查看轨道综合分析图